Flag for U.S.A. Weather past 2 weeks in Barnstable, Massachusetts, U.S.A.

Now
33 °F

Sunny.


Feels Like: 27 °F
Forecast: 29 / 43 °F
Wind: 7 mph from Southwest

Location: Barnstable Municipal-Boardman Airport

Current Time: Mar 29, 2015 at 8:37:29 PM

Latest Report: Mar 29, 2015 at 7:56 PM


Visibility: 10 mi

Pressure: 30.16 "Hg

Humidity: 52%

Dew point: 17 °F

Location of BarnstableLocation

Historic Weather in Barnstable — Graph

°F

Barnstable temperature yesterday

Maximum temperature yesterday: 38 °F (at 7:56 AM)
Minimum temperature yesterday: 32 °F (at 10:56 PM)
Average temperature yesterday: 35 °F

Past Weeks' High & Low Weather Summary

 TemperatureHumidityPressure
High52 °F (Mar 26, 11:56 PM)100% (Mar 14, 6:56 PM)30.41 "Hg (Mar 14, 6:56 PM)
Low17 °F (Mar 20, 6:56 AM)24% (Mar 18, 2:56 PM)29.37 "Hg (Mar 17, 4:56 PM)
Average33 °F68%29.94 "Hg
* Reported Mar 14 6:56 PM — Mar 29 6:56 PM, Barnstable, Weather by CustomWeather, © 2015

Note: Actual official high and low records may vary slightly from our data, if they occured in-between our weather recording intervals... More about our weather records

Advertising

Barnstable weather history for previous 24 hours

 ConditionsComfort  
Time TempWeatherWind HumidityBarometerVisibility
6:56 PM
Sun, Mar 29
34 °FSunny.7 mph44%30.14 "Hg10 mi
5:56 PM38 °FSunny.No wind33%30.12 "Hg10 mi
4:56 PM37 °FSunny.No wind31%30.12 "Hg10 mi
3:56 PM37 °FSunny.10 mph34%30.13 "Hg10 mi
2:56 PM36 °FSunny.9 mph46%30.15 "Hg10 mi
1:56 PM36 °FSunny.10 mph50%30.16 "Hg10 mi
12:56 PM37 °FSunny.12 mph44%30.16 "Hg10 mi
11:56 AM36 °FSunny.14 mph54%30.16 "Hg10 mi
10:56 AM35 °FSunny.16 mph56%30.16 "Hg10 mi
9:56 AM34 °FSunny.15 mph50%30.16 "Hg10 mi
8:56 AM34 °FPartly sunny.15 mph52%30.14 "Hg10 mi
7:56 AM32 °FBroken clouds.12 mph66%30.13 "Hg10 mi
6:56 AM30 °FMostly cloudy.10 mph66%30.10 "Hg10 mi
5:56 AM29 °FMostly cloudy.10 mph66%30.07 "Hg10 mi
4:56 AM29 °FMostly cloudy.14 mph66%30.04 "Hg10 mi
3:56 AM30 °FOvercast.13 mph72%30.03 "Hg10 mi
2:56 AM30 °FLight snow. Overcast.12 mph85%30.02 "Hg7 mi
1:56 AM32 °FOvercast.10 mph82%30.01 "Hg10 mi
12:56 AM33 °FLight snow. Mostly cloudy.9 mph85%30.00 "Hg8 mi
11:56 PM
Sat, Mar 28
32 °FOvercast.3 mph96%29.98 "Hg10 mi
10:56 PM32 °FOvercast.No wind96%29.97 "Hg10 mi
9:56 PM33 °FOvercast.No wind92%29.95 "Hg10 mi
8:56 PM33 °FLight snow. Mostly cloudy.9 mph92%29.92 "Hg7 mi
Weather by CustomWeather, © 2015

See weather overviewHow to use our weather pages